Location: Ch�teau-Arnoux
(44.0814°N, 6.0027°E)
Time: 10:53:41
(UTC+00:00)

COSMO-SKYMED 1 - Pass Details

Date: 15 November 2019
Orbit: 621 x 623 km, 97.9° (Epoch: 11 December)

Event Time Altitude Azimuth Distance (km) Brightness Sun altitude
Rises 04:34:35 0° 160° (SSE) 2,891 6.3 -20.8°
Reaches altitude 10° 04:36:46 10° 158° (SSE) 1,989 5.5 -20.4°
Maximum altitude 04:41:04 71° 75° (ENE) 664 2.8 -19.7°
Drops below altitude 10° 04:45:24 10° 352° (N) 2,003 5.0 -18.9°
Enters shadow 04:47:29 - 350° (N) 2,863 5.8 -18.5°
